Regional Weather Roundup
Issued by NWS

Home | Current Version | Previous Version | Text Only | Print | Product List | Glossary Off
Versions: 1 2 3 4 5 6 7 8 9 10 11 12 13 14 15 16 17 18 19 20 21 22 23 24 25 26 27 28 29 30 31 32 33 34 35 36 37 38 39 40 41 42 43 44 45 46 47 48 49 50

000
ASUS43 KLOT 290308
RWRIL

ILLINOIS REGIONAL WEATHER ROUNDUP
NATIONAL WEATHER SERVICE CHICAGO/ROMEOVILLE IL
1000 PM CDT WED JUN 28 2017

NOTE: "FAIR" INDICATES FEW OR NO CLOUDS BELOW 12,000 FEET WITH NO
SIGNIFICANT WEATHER AND/OR OBSTRUCTIONS TO VISIBILITY.

* THESE STATIONS ARE NOT UNDER NWS QUALITY CONTROL. THEY ALSO MAY NOT
  REPORT WEATHER SUCH AS PRECIPITATION OR FOG.

ILZ001-002-007-009-015-016-024-290400-
NORTHWEST ILLINOIS

CITY           SKY/WX    TMP DP  RH WIND       PRES   REMARKS
MOLINE         CLOUDY    80  64  58 S16       29.68R HX  82
STERLING*      CLOUDY    78  65  63 VRB7      29.74R HX  80
SAVANNA*       CLOUDY    69  67  91 E10       29.71S
$$

ILZ003-004-008-010-011-017-018-290400-
NORTH CENTRAL ILLINOIS

CITY           SKY/WX    TMP DP  RH WIND       PRES   REMARKS
ROCKFORD       TSTM      68  66  93 NE14      29.79F FOG
FREEPORT*      TSTM      64  63  96 NW6G38    29.79F
ROCHELLE*      CLOUDY    72  66  80 N12       29.79R
DE KALB*       LGT RAIN  69  64  86 NE9       29.81R
PERU*          CLOUDY    74  64  70 S15G22    29.76F
$$

ILZ005-006-012>014-019>023-290400-
NORTHEAST ILLINOIS

CITY           SKY/WX    TMP DP  RH WIND       PRES   REMARKS
CHICAGO-OHARE  LGT RAIN  74  62  66 N12       29.82R
CHICAGO-MIDWAY TSTM      79  61  53 S21G31    29.80R HX  80
AURORA         CLOUDY    75  64  68 S12       29.80R
LANSING*       CLOUDY    76  60  58 S15G23    29.85R
JOLIET*        RAIN      75  66  75 S12G23    29.81R
WAUKEGAN       LGT RAIN  65  64  97 SW8       29.83R FOG
DUPAGE AIRPORT LGT RAIN  74  64  71 N8        29.82R
WHEELING       TSTM      66  66 100 N12G26    29.86R
MORRIS*        LGT RAIN  73  64  75 S18G25    29.78F
ROMEOVILLE*    CLOUDY    72  63  73 S18G24    29.80R
$$

LMZ740>746-290400-
SOUTHERN LAKE MICHIGAN

STATION/POSITION SKY/WX   TEMP    WIND        PRES    VSBY  WAVE
                          AIR SEA DIR/SP/G                  HT/PER
                          (F)     (DEG/KT/KT) (MB)    (MI)  (FT/S)
SOUTHERN BUOY              65 60  180/  8/ 10 1007.9          4/ 6
WILMETTE HARBOR            67 62  310/ 17/ 27   N/A           3/ 4
HARRISON CRIB              78     200/ 27/ 30   N/A
BURNHAM HARBOR             78                   N/A
CALUMET HARBOR             76     190/  9/ 19 1009.2R
BURNS HARBOR               76     190/ 19/ 26 1009.8R
MICHIGAN CITY              76     170/ 17/ 23   N/A
MICHIGAN CITY 6N           74 65  190/ 19/ 25   N/A           3/ 3
ST. JOSEPH                 74 67  200/ 19/ 25 1009.6          4/ 4
$$

ILZ025>027-034>036-040-047-049-050-058-095>099-290400-
WEST-CENTRAL ILLINOIS

CITY           SKY/WX    TMP DP  RH WIND       PRES   REMARKS
QUINCY         CLOUDY    79  63  57 S10       29.82R HX  80
GALESBURG*     MOCLDY    78  63  60 S24G31    29.74S HX  80
MACOMB*        MOCLDY    79  62  55 S15G22    29.80S HX  80
JACKSONVILLE*  MOCLDY    79  60  52 S13       29.84R HX  80
PITTSFIELD*    CLOUDY    78  65  62 S9        29.85R HX  80
$$

ILZ028>032-037-038-041>044-048-051>054-059>061-290400-
CENTRAL ILLINOIS

CITY           SKY/WX    TMP DP  RH WIND       PRES   REMARKS
PONTIAC        CLOUDY    78  64  61 S15G21    29.84R HX  80
BLOOMINGTON    CLOUDY    76  63  64 S18G26    29.85R
DECATUR        CLOUDY    77  61  57 S14       29.89R
PEORIA         CLOUDY    78  63  59 S18       29.79S HX  80
LACON*         CLOUDY    78  64  61 S15G26    29.75F HX  80
LINCOLN*       CLOUDY    79  63  58 S13G20    29.84S HX  80
SPRINGFIELD    CLOUDY    79  64  60 S18G25    29.85R HX  81
TAYLORVILLE    CLOUDY    76  62  62 S12       29.88S
$$

ILZ033-039-045-046-055>057-062-063-290400-
EAST-CENTRAL ILLINOIS

CITY           SKY/WX    TMP DP  RH WIND       PRES   REMARKS
CHAMPAIGN      CLOUDY    76  62  62 S14       29.90R
RANTOUL*       CLOUDY    77  64  64 S10G20    29.89R
MATTOON        CLOUDY    75  65  70 S12       29.92R
PARIS*         CLEAR     72  63  73 S9        29.94R
$$

ILZ079-100>102-290400-
SOUTHWEST ILLINOIS

CITY           SKY/WX    TMP DP  RH WIND       PRES   REMARKS
ALTON          CLOUDY    77  66  69 S14       29.89F
BELLEVILLE     CLOUDY    78  65  65 S10       29.92S
CAHOKIA*       CLOUDY    80  64  58 S9        29.89F HX  82
SPARTA*        CLOUDY    76  64  66 S7        29.94S
$$

ILZ064>066-069>071-074>076-080>082-084>086-088>090-092>094-290400-
SOUTH-CENTRAL ILLINOIS

CITY           SKY/WX    TMP DP  RH WIND       PRES   REMARKS
CARBONDALE     CLOUDY    74  66  76 S6        29.96R
CAIRO*         CLEAR     76  66  71 CALM      29.97R
EFFINGHAM*     CLOUDY    75  65  69 SE7       29.94S
MARION         CLEAR     73  66  78 S3        29.98R
MT. VERNON     CLOUDY    74  65  73 S6        29.96R
CENTRALIA*     CLOUDY    74  66  75 S7        29.93S
SALEM*         CLOUDY    77  64  64 S8        29.93F
METROPOLIS*    MOCLDY    77  65  66 CALM      29.99R
$$

ILZ067-068-072-073-078-083-087-091-290400-
SOUTHEAST ILLINOIS

CITY           SKY/WX    TMP DP  RH WIND       PRES   REMARKS
LAWRENCEVILLE  CLEAR     68  63  84 S8        29.97R
FLORA*         CLEAR     75  66  73 S8        29.96R
FAIRFIELD*     CLEAR     75  66  74 S5        29.95R
HARRISBURG*    PTCLDY    73  68  85 S6        29.98R
ROBINSON*      CLEAR     68  62  79 S6        29.97R
CARMI*         CLEAR     72  66  83 S6        29.97R
$$

ABBREVIATIONS USED IN REMARKS
   TC - TEMPERATURE IN CELSIUS
  WCI - WIND CHILL INDEX
   HX - HEAT INDEX
  VSB - VISIBILITY
$$




USA.gov is the U.S. government's official web portal to all federal, state and local government web resources and services.